Flag for Italy Weather past 2 weeks in Trieste, Italy

Now
66 °F

Fog.


Feels Like: 66 °F
Forecast: 64 / 69 °F
Wind: 6 mph from Northeast

Location: Trieste

Current Time: Oct 20, 2014 at 8:35:36 PM

Latest Report: Oct 20, 2014 at 7:00 PM


Visibility: 2 mi

Pressure: 30.09 "Hg

Humidity: 92%

Dew point: 64 °F

Location of TriesteLocation

Historic Weather in Trieste — Graph

°F

Trieste temperature yesterday

Maximum temperature yesterday: 70 °F (at 3:00 PM)
Minimum temperature yesterday: 59 °F (at 4:00 AM)
Average temperature yesterday: 64 °F

Past Weeks' High & Low Weather Summary

 TemperatureHumidityPressure
High77 °F (Oct 13, 12:00 PM)98% (Oct 14, 11:00 PM)30.27 "Hg (Oct 14, 11:00 PM)
Low58 °F (Oct 7, 6:00 AM)51% (Oct 6, 1:00 PM)29.77 "Hg (Oct 15, 7:00 AM)
Average67 °F80%30.02 "Hg
* Reported Oct 5 7:00 PM — Oct 20 7:00 PM, Trieste, Weather by CustomWeather, © 2014

Note: Actual official high and low records may vary slightly from our data, if they occured in-between our weather recording intervals... More about our weather records

Advertising

Trieste weather history for previous 24 hours

 ConditionsComfort  
Time TempWeatherWind HumidityBarometerVisibility
7:00 PM
Oct 20
66 °FFog.6 mph92%30.09 "Hg2 mi
6:00 PM67 °FFog.3 mph95%30.09 "Hg2 mi
5:00 PM67 °FLow clouds.3 mph95%30.10 "Hg6 mi
4:00 PM66 °FLight rain. Low clouds.1 mph97%30.11 "Hg6 mi
3:00 PM67 °FLight rain. Overcast.1 mph95%30.13 "Hg6 mi
2:00 PM68 °FLight rain. Overcast.2 mph88%30.15 "Hg6 mi
1:00 PM68 °FLight rain. Overcast.1 mph85%30.18 "Hg6 mi
12:00 PM67 °FOvercast.2 mph84%30.18 "Hg6 mi
11:00 AM65 °FOvercast.1 mph85%30.20 "Hg6 mi
10:00 AM65 °FOvercast.2 mph83%30.19 "Hg12 mi
9:00 AM64 °FLight rain. Overcast.6 mph82%30.19 "Hg6 mi
8:00 AM64 °FOvercast.5 mph78%30.19 "Hg6 mi
7:00 AM64 °FOvercast.3 mph80%30.19 "Hg12 mi
5:00 AM63 °FOvercast.3 mph89%30.19 "Hg12 mi
4:00 AM63 °FOvercast.5 mph90%30.21 "Hg12 mi
3:00 AM62 °FOvercast.2 mph90%30.22 "Hg12 mi
2:00 AM63 °FOvercast.1 mph90%30.22 "Hg12 mi
1:00 AM63 °FPassing clouds.3 mph90%30.23 "Hg12 mi
12:00 AM62 °FClear.3 mph94%30.23 "Hg12 mi
11:00 PM
Oct 19
62 °FClear.6 mph93%30.24 "Hg12 mi
10:00 PM62 °FPassing clouds.6 mph93%30.24 "Hg12 mi
9:00 PM63 °FPassing clouds.5 mph87%30.24 "Hg12 mi
8:00 PM63 °FPassing clouds.6 mph87%30.23 "Hg12 mi
Weather by CustomWeather, © 2014

See weather overviewHow to use our weather pages